Regional Weather Roundup
Issued by NWS

Home | Current Version | Previous Version | Graphics & Text | Print | Product List | Glossary On
Versions: 1 2 3 4 5 6 7 8 9 10 11 12 13 14 15 16 17 18 19 20 21 22 23 24 25 26 27 28 29 30 31 32 33 34 35 36 37 38 39 40 41 42 43 44 45 46 47 48 49 50
265
ASUS45 KBOU 262007
RWRCO

WEATHER ROUNDUP FOR COLORADO
NATIONAL WEATHER SERVICE DENVER/BOULDER CO
200 PM MDT FRI MAY 26 2017

NOTE: "FAIR" INDICATES FEW OR NO CLOUDS BELOW 12000 FEET WITH NO
SIGNIFICANT WEATHER AND/OR OBSTRUCTIONS TO VISIBILITY.

COZ001>005-013-030-031-262100-
...NORTHWEST COLORADO...

CITY           SKY/WX    TMP DP  RH WIND       PRES   REMARKS
CRAIG          CLOUDY    68  32  26 SW18G26   29.81F
HAYDEN         FAIR      66  28  24 SW17G29   29.84S
MEEKER         PTSUNNY   70  25  18 SW17G25   29.84F
RABBIT EARS PA NOT AVBL
STEAMBOAT SPGS NOT AVBL
WALDEN         NOT AVBL
$$

COZ006>008-011-262100-
...WEST CENTRAL VALLEYS...

CITY           SKY/WX    TMP DP  RH WIND       PRES   REMARKS
GRAND JUNCTION FAIR      80  19  10 SW17G29   29.78F
MONTROSE       FAIR      77  15   9 SW24G39   29.89F
EAGLE          MOSUNNY   72  25  17 SW24G38   29.90F
RIFLE          FAIR      76  20  12 S17G28    29.81F
DELTA          FAIR      82  14   7 SW18G33   29.85F
NUCLA          FAIR      77  10   8 S25G31    29.94F
$$

COZ017>023-064>068-262100-
...SOUTHWEST COLORADO...

CITY           SKY/WX    TMP DP  RH WIND       PRES   REMARKS
DURANGO        FAIR      72  14  11 W13G23    30.01S
CORTEZ         FAIR      75  13   9 S14G21    29.96F
PAGOSA SPRINGS FAIR      67   6   9 SW10G29   30.07S
TELLURIDE      FAIR      58  11  15 S18G39    30.11R
WOLF CREEK PAS NOT AVBL
$$

COZ009-010-012-014-032>034-037-058>063-262100-
...CENTRAL COLORADO...

CITY           SKY/WX    TMP DP  RH WIND       PRES   REMARKS
ASPEN          FAIR      66  23  19 S10G18    29.97F
BUENA VISTA    FAIR      69  18  14 SE13G26   29.97F
COPPER MTN     NOT AVBL
BERTHOUD PASS  NOT AVBL
COTTONWOOD PAS NOT AVBL
GUNNISON       FAIR      66  26  22 SW14G20   29.98F
KREMMLING      NOT AVBL
LEADVILLE      PTSUNNY   54  20  26 SW13G28   30.09S
SALIDA         CLOUDY    64  37  36 NE6       30.04F
SUNLIGHT       NOT AVBL
WILKERSON PASS NOT AVBL
$$

COZ069>075-262100-
...SAN LUIS VALLEY/SANGRE DE CRISTO MOUNTAINS...

CITY           SKY/WX    TMP DP  RH WIND       PRES   REMARKS
ALAMOSA        FAIR      71  12  10 SW18G25   30.01F
DEL NORTE      NOT AVBL
LA VETA PASS   NOT AVBL
SAGUACHE       NOT AVBL
$$

COZ035-036-038>040-262100-
...NORTHERN COLORADO FRONT RANGE...

CITY           SKY/WX    TMP DP  RH WIND       PRES   REMARKS
DENVER INTL AP PTSUNNY   62  51  67 NE14      29.87S THUNDER
DMNS CITY PARK   N/A     65  49  56 N13G25    29.86F
AURORA         PTSUNNY   60  50  69 NW6       29.87S
FRONT RANGE AP PTSUNNY   64  50  59 SE3       29.89R
ERIE MUNI ARPT NOT AVBL
BOULDER MUN AP NOT AVBL
CENTENNIAL     PTSUNNY   62  54  74 N14       29.88F
BROOMFIELD     PTSUNNY   63  50  63 N12       29.90F
FORT COLLINS   FAIR      61  46  57 VRB7      29.88F
LONGMONT       NOT AVBL
$$

COZ041-046-047-076>085-087-088-262100-
...PIKES PEAK/PALMER DIVIDE AND SOUTHERN FOOTHILLS...

CITY           SKY/WX    TMP DP  RH WIND       PRES   REMARKS
COLO. SPRINGS  PTSUNNY   64  48  56 S22G31    29.97R
A. F. ACADEMY  PTSUNNY   60  45  57 S18G25    29.95S
SCHRIEVER AFB  FAIR      66  46  47 SE23      29.97F
CHEYENNE MTN   PTSUNNY   61  46  58 SE20G32   29.93S
ELLICOTT       FAIR     N/A N/A N/A S14G26    29.95F
FALCON         FAIR      61  45  54 S22G28    30.01R
FORT CARSON    FAIR      68  47  46 S16       29.94F
LIMON          FAIR      70  50  49 SE28G33   29.91F
MONUMENT HILL  NOT AVBL
CANON CITY     NOT AVBL
WALSENBURG     FAIR      75  41  29 S6G20     29.91F
TRINIDAD       FAIR      80  27  14 S15G21    29.90F
$$

COZ042>045-048>051-090-091-262100-
...NORTHEAST COLORADO...

CITY           SKY/WX    TMP DP  RH WIND       PRES   REMARKS
GREELEY ARPT   FAIR      63  48  58 E8        29.87
AKRON          FAIR      66  48  52 SE16G22   29.91F
BURLINGTON     FAIR      69  52  54 SE9       29.93F
WRAY           FAIR      72  45  37 E10G16    29.91F
YUMA           NOT AVBL
STERLING       NOT AVBL
HOLYOKE        NOT AVBL
FORT MORGAN    FAIR      69  45  41 SE15      29.88F
$$

COZ086-089-092>099-262100-
...SOUTHEAST COLORADO...

CITY           SKY/WX    TMP DP  RH WIND       PRES   REMARKS
PUEBLO         FAIR      77  47  34 SE20G25   29.85F
LA JUNTA       FAIR      79  48  33 SE10G24   29.88F
LAMAR          FAIR      79  47  32 VRB7      29.87F
SPRINGFIELD      N/A     77  47  34 SE15G21   29.92F
$$




USA.gov is the U.S. government's official web portal to all federal, state and local government web resources and services.